Time,TemperatureF,DewpointF,PressureIn,WindDirection,WindDirectionDegrees,WindSpeedMPH,WindSpeedGustMPH,Humidity,HourlyPrecipIn,Conditions,Clouds,dailyrainin,SoftwareType,DateUTC
2013-02-24 00:01:00,41.0,-99.9,30.45,ESE,122,9.0,11.0,-999,-99.99,,,-99.99,,2013-02-24 08:01:00,
2013-02-24 00:11:00,40.0,-99.9,30.46,ESE,123,7.0,9.0,-999,-99.99,,,-99.99,,2013-02-24 08:11:00,
2013-02-24 00:22:00,40.0,-99.9,30.46,ESE,122,7.0,9.0,-999,-99.99,,,-99.99,,2013-02-24 08:22:00,
2013-02-24 00:32:00,40.0,-99.9,30.45,ESE,112,7.0,9.0,-999,-99.99,,,-99.99,,2013-02-24 08:32:00,
2013-02-24 00:42:00,40.0,-99.9,30.46,East,97,5.0,8.0,-999,-99.99,,,-99.99,,2013-02-24 08:42:00,
2013-02-24 00:54:00,40.0,-99.9,30.46,East,97,5.0,6.0,-999,-99.99,,,-99.99,,2013-02-24 08:54:00,
2013-02-24 01:02:00,40.0,-99.9,30.46,East,99,5.0,7.0,-999,-99.99,,,-99.99,,2013-02-24 09:02:00,
2013-02-24 01:11:00,40.0,-99.9,30.46,ESE,111,7.0,8.0,-999,-99.99,,,-99.99,,2013-02-24 09:11:00,
2013-02-24 01:22:00,40.0,-99.9,30.46,ESE,109,7.0,9.0,-999,-99.99,,,-99.99,,2013-02-24 09:22:00,
2013-02-24 01:32:00,40.0,-99.9,30.45,ESE,108,7.0,8.0,-999,-99.99,,,-99.99,,2013-02-24 09:32:00,
2013-02-24 01:42:00,40.0,-99.9,30.45,East,97,5.0,8.0,-999,-99.99,,,-99.99,,2013-02-24 09:42:00,
2013-02-24 01:52:00,41.0,-99.9,30.46,ESE,109,5.0,6.0,-999,-99.99,,,-99.99,,2013-02-24 09:52:00,
2013-02-24 02:01:00,41.0,-99.9,30.45,ESE,107,6.0,7.0,-999,-99.99,,,-99.99,,2013-02-24 10:01:00,
2013-02-24 02:11:00,40.0,-99.9,30.45,ESE,105,6.0,7.0,-999,-99.99,,,-99.99,,2013-02-24 10:11:00,
2013-02-24 02:22:00,40.0,-99.9,30.45,ESE,107,6.0,7.0,-999,-99.99,,,-99.99,,2013-02-24 10:22:00,
2013-02-24 02:32:00,40.0,-99.9,30.45,ESE,102,6.0,7.0,-999,-99.99,,,-99.99,,2013-02-24 10:32:00,
2013-02-24 02:42:00,40.0,-99.9,30.45,ESE,104,6.0,7.0,-999,-99.99,,,-99.99,,2013-02-24 10:42:00,
2013-02-24 02:52:00,40.0,-99.9,30.45,East,96,4.0,6.0,-999,-99.99,,,-99.99,,2013-02-24 10:52:00,
2013-02-24 03:01:00,40.0,-99.9,30.45,East,101,5.0,7.0,-999,-99.99,,,-99.99,,2013-02-24 11:01:00,
2013-02-24 03:11:00,40.0,-99.9,30.45,ESE,106,6.0,7.0,-999,-99.99,,,-99.99,,2013-02-24 11:11:00,
2013-02-24 03:22:00,40.0,-99.9,30.44,ESE,114,6.0,7.0,-999,-99.99,,,-99.99,,2013-02-24 11:22:00,
2013-02-24 03:32:00,40.0,-99.9,30.43,ESE,113,6.0,7.0,-999,-99.99,,,-99.99,,2013-02-24 11:32:00,
2013-02-24 03:42:00,40.0,-99.9,30.43,ESE,116,5.0,6.0,-999,-99.99,,,-99.99,,2013-02-24 11:42:00,
2013-02-24 03:53:00,40.0,-99.9,30.43,ESE,110,5.0,6.0,-999,-99.99,,,-99.99,,2013-02-24 11:53:00,
2013-02-24 04:02:00,40.0,-99.9,30.43,ESE,108,6.0,6.0,-999,-99.99,,,-99.99,,2013-02-24 12:02:00,
2013-02-24 04:11:00,40.0,-99.9,30.43,ESE,112,6.0,7.0,-999,-99.99,,,-99.99,,2013-02-24 12:11:00,
2013-02-24 04:22:00,40.0,-99.9,30.43,East,101,6.0,7.0,-999,-99.99,,,-99.99,,2013-02-24 12:22:00,
2013-02-24 04:33:00,40.0,-99.9,30.43,ESE,115,7.0,8.0,-999,-99.99,,,-99.99,,2013-02-24 12:33:00,
2013-02-24 04:46:00,40.0,-99.9,30.43,ESE,114,8.0,8.0,-999,-99.99,,,-99.99,,2013-02-24 12:46:00,
2013-02-24 05:00:00,40.0,-99.9,30.43,ESE,114,8.0,9.0,-999,-99.99,,,-99.99,,2013-02-24 13:00:00,
2013-02-24 05:15:00,40.0,-99.9,30.42,ESE,117,9.0,10.0,-999,-99.99,,,-99.99,,2013-02-24 13:15:00,
2013-02-24 05:27:00,40.0,-99.9,30.42,ESE,108,9.0,10.0,-999,-99.99,,,-99.99,,2013-02-24 13:27:00,
2013-02-24 05:35:00,40.0,-99.9,30.42,ESE,115,7.0,9.0,-999,-99.99,,,-99.99,,2013-02-24 13:35:00,
2013-02-24 05:45:00,40.0,-99.9,30.42,ESE,110,7.0,7.0,-999,-99.99,,,-99.99,,2013-02-24 13:45:00,
2013-02-24 05:56:00,40.0,-99.9,30.42,ESE,116,7.0,7.0,-999,-99.99,,,-99.99,,2013-02-24 13:56:00,
2013-02-24 06:05:00,40.0,-99.9,30.42,SE,125,7.0,8.0,-999,-99.99,,,-99.99,,2013-02-24 14:05:00,
2013-02-24 06:14:00,40.0,-99.9,30.42,ESE,122,7.0,8.0,-999,-99.99,,,-99.99,,2013-02-24 14:14:00,
2013-02-24 06:25:00,40.0,-99.9,30.42,ESE,121,7.0,8.0,-999,-99.99,,,-99.99,,2013-02-24 14:25:00,
2013-02-24 06:35:00,40.0,-99.9,30.42,ESE,117,8.0,9.0,-999,-99.99,,,-99.99,,2013-02-24 14:35:00,
2013-02-24 06:45:00,40.0,-99.9,30.42,ESE,114,8.0,9.0,-999,-99.99,,,-99.99,,2013-02-24 14:45:00,
2013-02-24 06:55:00,40.0,-99.9,30.42,ESE,110,8.0,9.0,-999,-99.99,,,-99.99,,2013-02-24 14:55:00,
2013-02-24 07:04:00,40.0,-99.9,30.42,ESE,117,7.0,8.0,-999,-99.99,,,-99.99,,2013-02-24 15:04:00,
2013-02-24 07:14:00,40.0,-99.9,30.42,ESE,113,7.0,8.0,-999,-99.99,,,-99.99,,2013-02-24 15:14:00,
2013-02-24 07:24:00,40.0,-99.9,30.42,ESE,107,8.0,8.0,-999,-99.99,,,-99.99,,2013-02-24 15:24:00,
2013-02-24 07:32:00,40.0,-99.9,30.42,ESE,105,8.0,9.0,-999,-99.99,,,-99.99,,2013-02-24 15:32:00,
2013-02-24 07:42:00,40.0,-99.9,30.42,ESE,118,6.0,8.0,-999,-99.99,,,-99.99,,2013-02-24 15:42:00,
2013-02-24 07:53:00,40.0,-99.9,30.41,ESE,112,8.0,9.0,-999,-99.99,,,-99.99,,2013-02-24 15:53:00,
2013-02-24 08:02:00,40.0,-99.9,30.41,ESE,110,8.0,9.0,-999,-99.99,,,-99.99,,2013-02-24 16:02:00,
2013-02-24 08:12:00,40.0,-99.9,30.41,ESE,110,8.0,9.0,-999,-99.99,,,-99.99,,2013-02-24 16:12:00,
2013-02-24 08:22:00,40.0,-99.9,30.41,ESE,109,8.0,9.0,-999,-99.99,,,-99.99,,2013-02-24 16:22:00,
2013-02-24 08:32:00,40.0,-99.9,30.41,ESE,108,8.0,9.0,-999,-99.99,,,-99.99,,2013-02-24 16:32:00,
2013-02-24 08:42:00,41.0,-99.9,30.41,ESE,108,7.0,8.0,-999,-99.99,,,-99.99,,2013-02-24 16:42:00,
2013-02-24 08:52:00,41.0,-99.9,30.40,ESE,109,7.0,8.0,-999,-99.99,,,-99.99,,2013-02-24 16:52:00,
2013-02-24 09:01:00,42.0,-99.9,30.41,ESE,105,7.0,8.0,-999,-99.99,,,-99.99,,2013-02-24 17:01:00,
2013-02-24 09:11:00,42.0,-99.9,30.41,ESE,102,6.0,9.0,-999,-99.99,,,-99.99,,2013-02-24 17:11:00,
2013-02-24 09:22:00,42.0,-99.9,30.41,ESE,111,5.0,7.0,-999,-99.99,,,-99.99,,2013-02-24 17:22:00,
2013-02-24 09:32:00,43.0,-99.9,30.41,ESE,104,4.0,6.0,-999,-99.99,,,-99.99,,2013-02-24 17:32:00,
2013-02-24 09:42:00,43.0,-99.9,30.41,East,101,4.0,6.0,-999,-99.99,,,-99.99,,2013-02-24 17:42:00,
2013-02-24 09:53:00,44.0,-99.9,30.41,East,96,5.0,7.0,-999,-99.99,,,-99.99,,2013-02-24 17:53:00,
2013-02-24 10:02:00,44.0,-99.9,30.41,East,99,7.0,10.0,-999,-99.99,,,-99.99,,2013-02-24 18:02:00,
2013-02-24 10:12:00,45.0,-99.9,30.40,ESE,103,8.0,9.0,-999,-99.99,,,-99.99,,2013-02-24 18:12:00,
2013-02-24 10:22:00,45.0,-99.9,30.40,ESE,107,6.0,10.0,-999,-99.99,,,-99.99,,2013-02-24 18:22:00,
2013-02-24 10:32:00,46.0,-99.9,30.40,SE,137,7.0,10.0,-999,-99.99,,,-99.99,,2013-02-24 18:32:00,
2013-02-24 10:42:00,47.0,-99.9,30.39,SSE,148,8.0,12.0,-999,-99.99,,,-99.99,,2013-02-24 18:42:00,
2013-02-24 10:52:00,47.0,-99.9,30.39,South,181,6.0,13.0,-999,-99.99,,,-99.99,,2013-02-24 18:52:00,
2013-02-24 11:01:00,47.0,-99.9,30.38,SSW,194,6.0,10.0,-999,-99.99,,,-99.99,,2013-02-24 19:01:00,
2013-02-24 11:12:00,47.0,-99.9,30.38,South,186,8.0,12.0,-999,-99.99,,,-99.99,,2013-02-24 19:12:00,
2013-02-24 11:22:00,48.0,-99.9,30.38,SW,221,8.0,11.0,-999,-99.99,,,-99.99,,2013-02-24 19:22:00,
2013-02-24 11:32:00,47.0,-99.9,30.38,SSW,211,9.0,13.0,-999,-99.99,,,-99.99,,2013-02-24 19:32:00,
2013-02-24 11:42:00,47.0,-99.9,30.38,SW,224,10.0,14.0,-999,-99.99,,,-99.99,,2013-02-24 19:42:00,
2013-02-24 11:52:00,47.0,-99.9,30.38,SSW,213,11.0,14.0,-999,-99.99,,,-99.99,,2013-02-24 19:52:00,
2013-02-24 12:02:00,48.0,-99.9,30.38,WSW,239,10.0,14.0,-999,-99.99,,,-99.99,,2013-02-24 20:02:00,
2013-02-24 12:11:00,48.0,-99.9,30.37,SSW,199,10.0,13.0,-999,-99.99,,,-99.99,,2013-02-24 20:11:00,
2013-02-24 12:22:00,48.0,-99.9,30.37,WSW,237,10.0,13.0,-999,-99.99,,,-99.99,,2013-02-24 20:22:00,
2013-02-24 12:32:00,48.0,-99.9,30.37,SW,229,8.0,13.0,-999,-99.99,,,-99.99,,2013-02-24 20:32:00,
2013-02-24 12:42:00,48.0,-99.9,30.37,SSW,212,9.0,15.0,-999,-99.99,,,-99.99,,2013-02-24 20:42:00,
2013-02-24 12:52:00,48.0,-99.9,30.36,SW,221,9.0,12.0,-999,-99.99,,,-99.99,,2013-02-24 20:52:00,
2013-02-24 13:02:00,48.0,-99.9,30.35,SW,232,8.0,15.0,-999,-99.99,,,-99.99,,2013-02-24 21:02:00,
2013-02-24 13:11:00,47.0,-99.9,30.35,WSW,241,11.0,15.0,-999,-99.99,,,-99.99,,2013-02-24 21:11:00,
2013-02-24 13:21:00,47.0,-99.9,30.35,SW,231,9.0,15.0,-999,-99.99,,,-99.99,,2013-02-24 21:21:00,
2013-02-24 13:32:00,48.0,-99.9,30.34,SW,227,8.0,15.0,-999,-99.99,,,-99.99,,2013-02-24 21:32:00,
2013-02-24 13:42:00,48.0,-99.9,30.33,SW,231,8.0,14.0,-999,-99.99,,,-99.99,,2013-02-24 21:42:00,
2013-02-24 13:52:00,48.0,-99.9,30.33,SW,220,10.0,13.0,-999,-99.99,,,-99.99,,2013-02-24 21:52:00,
2013-02-24 14:01:00,47.0,-99.9,30.32,WSW,244,9.0,14.0,-999,-99.99,,,-99.99,,2013-02-24 22:01:00,
2013-02-24 14:11:00,47.0,-99.9,30.32,WSW,243,11.0,14.0,-999,-99.99,,,-99.99,,2013-02-24 22:11:00,
2013-02-24 14:22:00,47.0,-99.9,30.32,SW,222,10.0,14.0,-999,-99.99,,,-99.99,,2013-02-24 22:22:00,
2013-02-24 14:32:00,47.0,-99.9,30.31,SW,234,11.0,14.0,-999,-99.99,,,-99.99,,2013-02-24 22:32:00,
2013-02-24 14:42:00,48.0,-99.9,30.31,WSW,240,11.0,15.0,-999,-99.99,,,-99.99,,2013-02-24 22:42:00,
2013-02-24 14:52:00,48.0,-99.9,30.31,WSW,247,8.0,13.0,-999,-99.99,,,-99.99,,2013-02-24 22:52:00,
2013-02-24 15:02:00,47.0,-99.9,30.30,WSW,248,9.0,15.0,-999,-99.99,,,-99.99,,2013-02-24 23:02:00,
2013-02-24 15:11:00,47.0,-99.9,30.29,WSW,239,10.0,13.0,-999,-99.99,,,-99.99,,2013-02-24 23:11:00,
2013-02-24 15:22:00,47.0,-99.9,30.29,SW,236,10.0,14.0,-999,-99.99,,,-99.99,,2013-02-24 23:22:00,
2013-02-24 15:32:00,47.0,-99.9,30.29,SW,229,11.0,14.0,-999,-99.99,,,-99.99,,2013-02-24 23:32:00,
2013-02-24 15:42:00,47.0,-99.9,30.29,WSW,237,12.0,15.0,-999,-99.99,,,-99.99,,2013-02-24 23:42:00,
2013-02-24 15:52:00,47.0,-99.9,30.28,SW,227,10.0,15.0,-999,-99.99,,,-99.99,,2013-02-24 23:52:00,
2013-02-24 16:02:00,47.0,-99.9,30.28,SW,221,10.0,14.0,-999,-99.99,,,-99.99,,2013-02-25 00:02:00,
2013-02-24 16:11:00,47.0,-99.9,30.28,SW,229,8.0,12.0,-999,-99.99,,,-99.99,,2013-02-25 00:11:00,
2013-02-24 16:22:00,47.0,-99.9,30.27,SW,220,8.0,12.0,-999,-99.99,,,-99.99,,2013-02-25 00:22:00,
2013-02-24 16:32:00,47.0,-99.9,30.27,SSW,206,9.0,12.0,-999,-99.99,,,-99.99,,2013-02-25 00:32:00,
2013-02-24 16:42:00,47.0,-99.9,30.27,SW,226,9.0,11.0,-999,-99.99,,,-99.99,,2013-02-25 00:42:00,
2013-02-24 16:52:00,47.0,-99.9,30.26,SW,216,8.0,11.0,-999,-99.99,,,-99.99,,2013-02-25 00:52:00,
2013-02-24 17:02:00,47.0,-99.9,30.26,SW,217,8.0,12.0,-999,-99.99,,,-99.99,,2013-02-25 01:02:00,
2013-02-24 17:11:00,47.0,-99.9,30.25,SSW,211,8.0,12.0,-999,-99.99,,,-99.99,,2013-02-25 01:11:00,
2013-02-24 17:22:00,47.0,-99.9,30.25,South,180,6.0,8.0,-999,-99.99,,,-99.99,,2013-02-25 01:22:00,
2013-02-24 17:32:00,47.0,-99.9,30.24,South,190,7.0,11.0,-999,-99.99,,,-99.99,,2013-02-25 01:32:00,
2013-02-24 17:42:00,47.0,-99.9,30.24,SSW,196,5.0,10.0,-999,-99.99,,,-99.99,,2013-02-25 01:42:00,
2013-02-24 17:52:00,46.0,-99.9,30.24,South,182,7.0,12.0,-999,-99.99,,,-99.99,,2013-02-25 01:52:00,
2013-02-24 18:01:00,46.0,-99.9,30.23,South,175,6.0,9.0,-999,-99.99,,,-99.99,,2013-02-25 02:01:00,
2013-02-24 18:11:00,46.0,-99.9,30.23,South,183,7.0,10.0,-999,-99.99,,,-99.99,,2013-02-25 02:11:00,
2013-02-24 18:21:00,46.0,-99.9,30.22,SSE,163,4.0,6.0,-999,-99.99,,,-99.99,,2013-02-25 02:21:00,
2013-02-24 18:32:00,46.0,-99.9,30.22,South,182,6.0,8.0,-999,-99.99,,,-99.99,,2013-02-25 02:32:00,
2013-02-24 18:42:00,46.0,-99.9,30.22,SSE,161,5.0,9.0,-999,-99.99,,,-99.99,,2013-02-25 02:42:00,
2013-02-24 18:52:00,46.0,-99.9,30.22,SSE,166,5.0,7.0,-999,-99.99,,,-99.99,,2013-02-25 02:52:00,
2013-02-24 19:02:00,45.0,-99.9,30.21,SSE,160,5.0,8.0,-999,-99.99,,,-99.99,,2013-02-25 03:02:00,
2013-02-24 19:11:00,45.0,-99.9,30.21,South,174,5.0,9.0,-999,-99.99,,,-99.99,,2013-02-25 03:11:00,
2013-02-24 19:21:00,45.0,-99.9,30.20,SSE,157,6.0,9.0,-999,-99.99,,,-99.99,,2013-02-25 03:21:00,
2013-02-24 19:32:00,45.0,-99.9,30.20,SSE,159,7.0,9.0,-999,-99.99,,,-99.99,,2013-02-25 03:32:00,
2013-02-24 19:42:00,45.0,-99.9,30.20,SSE,157,5.0,9.0,-999,-99.99,,,-99.99,,2013-02-25 03:42:00,
2013-02-24 19:52:00,45.0,-99.9,30.19,SSE,166,6.0,9.0,-999,-99.99,,,-99.99,,2013-02-25 03:52:00,
2013-02-24 20:02:00,45.0,-99.9,30.19,South,172,7.0,11.0,-999,-99.99,,,-99.99,,2013-02-25 04:02:00,
2013-02-24 20:11:00,45.0,-99.9,30.18,SSE,155,7.0,12.0,-999,-99.99,,,-99.99,,2013-02-25 04:11:00,
2013-02-24 20:22:00,45.0,-99.9,30.18,SSE,164,8.0,11.0,-999,-99.99,,,-99.99,,2013-02-25 04:22:00,
2013-02-24 20:32:00,45.0,-99.9,30.17,SSE,162,7.0,11.0,-999,-99.99,,,-99.99,,2013-02-25 04:32:00,
2013-02-24 20:42:00,45.0,-99.9,30.17,SSE,162,9.0,13.0,-999,-99.99,,,-99.99,,2013-02-25 04:42:00,
2013-02-24 20:52:00,45.0,-99.9,30.17,SSE,160,9.0,11.0,-999,-99.99,,,-99.99,,2013-02-25 04:52:00,
2013-02-24 21:01:00,45.0,-99.9,30.17,SSE,166,5.0,9.0,-999,-99.99,,,-99.99,,2013-02-25 05:01:00,
2013-02-24 21:11:00,45.0,-99.9,30.16,SSE,160,7.0,9.0,-999,-99.99,,,-99.99,,2013-02-25 05:11:00,
2013-02-24 21:22:00,46.0,-99.9,30.16,South,171,7.0,12.0,-999,-99.99,,,-99.99,,2013-02-25 05:22:00,
2013-02-24 21:32:00,46.0,-99.9,30.16,South,176,7.0,12.0,-999,-99.99,,,-99.99,,2013-02-25 05:32:00,
2013-02-24 21:42:00,46.0,-99.9,30.16,South,182,12.0,16.0,-999,-99.99,,,-99.99,,2013-02-25 05:42:00,
2013-02-24 21:52:00,46.0,-99.9,30.15,South,172,9.0,17.0,-999,-99.99,,,-99.99,,2013-02-25 05:52:00,
2013-02-24 22:03:00,46.0,-99.9,30.15,SSW,193,10.0,17.0,-999,-99.99,,,-99.99,,2013-02-25 06:03:00,
2013-02-24 22:12:00,46.0,-99.9,30.14,South,177,9.0,14.0,-999,-99.99,,,-99.99,,2013-02-25 06:12:00,
2013-02-24 22:22:00,46.0,-99.9,30.14,South,180,11.0,16.0,-999,-99.99,,,-99.99,,2013-02-25 06:22:00,
2013-02-24 22:32:00,46.0,-99.9,30.13,South,181,11.0,18.0,-999,-99.99,,,-99.99,,2013-02-25 06:32:00,
2013-02-24 22:42:00,46.0,-99.9,30.12,South,185,11.0,19.0,-999,-99.99,,,-99.99,,2013-02-25 06:42:00,
2013-02-24 22:52:00,46.0,-99.9,30.12,South,183,11.0,24.0,-999,-99.99,,,-99.99,,2013-02-25 06:52:00,
2013-02-24 23:01:00,46.0,-99.9,30.11,South,186,9.0,20.0,-999,-99.99,,,-99.99,,2013-02-25 07:01:00,
2013-02-24 23:11:00,46.0,-99.9,30.11,SSW,195,13.0,23.0,-999,-99.99,,,-99.99,,2013-02-25 07:11:00,
2013-02-24 23:21:00,46.0,-99.9,30.11,SSW,192,13.0,23.0,-999,-99.99,,,-99.99,,2013-02-25 07:21:00,
2013-02-24 23:32:00,46.0,-99.9,30.10,SSW,197,13.0,30.0,-999,-99.99,,,-99.99,,2013-02-25 07:32:00,
2013-02-24 23:42:00,46.0,-99.9,30.10,SSW,192,20.0,27.0,-999,-99.99,,,-99.99,,2013-02-25 07:42:00,
2013-02-24 23:52:00,46.0,-99.9,30.10,SSW,196,18.0,27.0,-999,-99.99,,,-99.99,,2013-02-25 07:52:00,